Location: Lombard
(41.8800°N, 88.0080°W)
Time: 13:04:31
(UTC-05:00)

A-11 Canister half - Pass Details

Date: 06 February 2023
Orbit: 1512 x 1687 km, 47.2° (Epoch: 20 March)

Event Time Altitude Azimuth Distance (km) Brightness Sun altitude
Rises 17:25:17 0° 295° (WNW) 4,707 12.4 -2.9°
Reaches altitude 10° 17:28:47 10° 286° (WNW) 3,703 12.0 -3.5°
Maximum altitude 17:36:32 31° 228° (SW) 2,407 10.9 -4.9°
Drops below altitude 10° 17:44:14 10° 171° (S) 3,661 11.1 -6.3°
Sets 17:47:42 0° 161° (SSE) 4,646 11.5 -6.9°
